[[{"header":{"parameterUnit":"m.s-1","parameterCategory":2,"la1":30.2992,"la2":30.254,"lo1":-89.0895,"lo2":-89.0443,"dy":0.0025,"dx":0.0025,"nx":19,"ny":19,"refTime":"2026-05-11T09:00:00:Z","depth":"0","parameterNumber":2,"parameterNumberName":"U-component_of_CURRENTS"},"data":[0,0,0,-0.2757,-0.2757,-0.2747,-0.2747,-0.2731,-0.2731,0,0,0,0,0,0,0,0,0,0,0,-0.2752,-0.2752,-0.2757,-0.2757,-0.2747,-0.2747,-0.2731,-0.2731,0,0,0,0,0,0,0,0,0,0,0,-0.2752,-0.2752,-0.2752,-0.2757,-0.2747,-0.2747,-0.2731,-0.2737,0,0,0,0,0,0,0,0,0,0,-0.2746,-0.2738,-0.2752,-0.2752,-0.2758,-0.2747,-0.2747,-0.2737,-0.2737,-0.2739,0,-0.2739,0,-0.2744,-0.2731,-0.2731,0,0,0,-0.2746,-0.2738,-0.2747,-0.2752,-0.2758,-0.2747,-0.2748,-0.2737,-0.2736,-0.2738,-0.2739,-0.2738,-0.2744,-0.2731,-0.2731,-0.2791,-0.2791,0,0,-0.2747,-0.2738,-0.2748,-0.2747,-0.2757,-0.2749,-0.2748,-0.2736,-0.2729,-0.2738,-0.2738,-0.2743,-0.2731,-0.2731,-0.279,-0.2791,0,0,0,-0.2756,-0.2738,-0.2747,-0.2747,-0.2751,-0.2749,-0.2748,-0.2729,-0.2736,-0.2738,-0.2743,-0.2731,-0.2731,-0.2789,-0.279,-0.2809,0,0,0,-0.2756,-0.2745,-0.2748,-0.2741,-0.2751,-0.2739,-0.2741,-0.2736,-0.2736,-0.2743,-0.2731,-0.2731,-0.2788,-0.279,-0.2807,-0.2768,0,0,0,-0.2752,-0.2745,-0.2747,-0.2741,-0.2744,-0.274,-0.2744,-0.2736,-0.274,-0.2731,-0.2731,-0.2788,-0.2789,-0.2805,-0.2767,-0.2631,0,0,0,-0.274,-0.2774,-0.2746,-0.2796,-0.2744,-0.2802,-0.2744,-0.2769,-0.277,-0.2731,-0.2789,-0.279,-0.2805,-0.2766,-0.2632,-0.2433,-0.2409,0,0,-0.2788,-0.2778,-0.2816,-0.2793,-0.2866,-0.2803,-0.2844,-0.2809,-0.2792,-0.2788,-0.279,-0.2808,-0.2767,-0.2631,-0.2523,-0.2495,0,0,0,-0.2838,-0.2855,-0.2879,-0.2905,-0.2929,-0.2902,-0.2879,-0.2846,-0.2826,-0.2801,-0.2834,-0.2807,-0.272,-0.2606,-0.2585,-0.2464,-0.2797,-0.2797,-0.2797,-0.2825,-0.2876,-0.2929,-0.2977,-0.3,-0.2972,-0.2935,-0.2883,-0.2885,-0.2877,-0.2845,-0.2782,-0.2669,-0.2649,-0.2532,-0.2895,-0.2895,-0.2895,-0.2895,-0.2869,-0.2868,-0.2939,-0.3014,-0.3003,-0.3017,-0.2962,-0.2929,-0.2825,-0.2873,-0.2787,-0.2661,-0.2626,-0.2509,-0.2897,-0.2896,-0.2896,-0.2896,-0.2896,-0.2811,-0.2808,-0.2892,-0.2955,-0.2972,-0.2984,-0.2875,-0.2856,-0.2811,-0.2756,-0.2534,-0.2532,-0.2395,-0.269,-0.2689,-0.2688,-0.2688,-0.2687,-0.2687,-0.266,-0.2747,-0.2756,-0.2864,-0.2859,-0.2841,-0.2788,-0.2696,-0.2542,-0.2492,-0.249,-0.2355,-0.2716,-0.2685,-0.2676,-0.2678,-0.2679,-0.268,-0.2681,-0.2475,-0.2537,-0.2543,-0.2557,-0.2569,-0.2439,-0.249,-0.2279,-0.2207,-0.2081,-0.2006,-0.2316,-0.2251,-0.2267,-0.2224,-0.2095,-0.2095,-0.2095,-0.2094,-0.2282,-0.2341,-0.2264,-0.2229,-0.2201,-0.2206,-0.1889,-0.1791,-0.1699,-0.1605,-0.1703,-0.1742,-0.1771,-0.1682,-0.1711,-0.1661,-0.1391,-0.139,-0.139,-0.2074,-0.2119,-0.1968,-0.2028,-0.2006,-0.1895,-0.1527,-0.1302,-0.1268,-0.1359,-0.1573,-0.1603,-0.1672,-0.1727,-0.1606,-0.1656,-0.1581,0,0]},{"header":{"parameterUnit":"m.s-1","parameterCategory":2,"la1":30.2992,"la2":30.254,"lo1":-89.0895,"lo2":-89.0443,"dy":0.0025,"dx":0.0025,"nx":19,"ny":19,"refTime":"2026-05-11T09:00:00:Z","depth":"0","parameterNumber":3,"parameterNumberName":"V-component_of_CURRENTS"},"data":[0,0,0,-0.0258,-0.0256,-0.014,-0.014,0.001,0.0011,0,0,0,0,0,0,0,0,0,0,0,-0.0301,-0.03,-0.0258,-0.0256,-0.014,-0.014,0.001,0.0011,0,0,0,0,0,0,0,0,0,0,0,-0.0301,-0.03,-0.03,-0.0256,-0.0141,-0.014,0.0009,-0.0074,0,0,0,0,0,0,0,0,0,0,-0.0185,-0.023,-0.03,-0.03,-0.0255,-0.0141,-0.014,-0.0078,-0.0069,-0.0048,0,-0.0042,0,-0.0019,0.0019,0.002,0,0,0,-0.0238,-0.0237,-0.021,-0.03,-0.0254,-0.0141,-0.0187,-0.0073,-0.0062,-0.0036,-0.004,-0.0034,-0.0017,0.002,0.0021,0.0127,0.0127,0,0,-0.0244,-0.027,-0.0218,-0.0204,-0.024,-0.0191,-0.0184,-0.0066,-0.006,-0.004,-0.0031,-0.0014,0.0021,0.0022,0.0127,0.0127,0,0,0,-0.0275,-0.0275,-0.025,-0.0211,-0.0193,-0.0188,-0.018,-0.0065,-0.0058,-0.0029,-0.0012,0.0022,0.0023,0.0127,0.0127,0.008,0,0,0,-0.0278,-0.0294,-0.0253,-0.0265,-0.0196,-0.0128,-0.0182,-0.0066,-0.0052,-0.0013,0.0022,0.0024,0.0126,0.0127,0.008,0.0092,0,0,0,-0.0303,-0.0296,-0.0289,-0.0267,-0.0226,-0.0129,-0.0114,-0.0062,-0.0043,0.002,0.0025,0.0126,0.0127,0.0081,0.0092,0.0165,0,0,0,-0.0324,-0.0333,-0.0289,-0.0287,-0.0227,-0.0174,-0.0115,-0.0061,-0.0013,0.0022,0.0126,0.0127,0.0081,0.0093,0.0164,0.016,0.0165,0,0,-0.0352,-0.0337,-0.0335,-0.0294,-0.0274,-0.0188,-0.0136,-0.0049,0.0006,0.009,0.0093,0.008,0.0092,0.0165,0.0192,0.0195,0,0,0,-0.0354,-0.0362,-0.0347,-0.032,-0.026,-0.0185,-0.0102,-0.0044,0.0046,0.0035,0.0105,0.0116,0.0162,0.0158,0.0161,0.0219,0.0129,0.0129,0.0129,-0.0447,-0.0405,-0.0402,-0.0347,-0.0296,-0.0178,-0.01,-0.0,0.0029,0.0067,0.0093,0.0142,0.0134,0.0137,0.0195,0.0096,0.0096,0.0096,0.0096,-0.052,-0.0536,-0.0443,-0.0431,-0.0327,-0.0267,-0.0089,-0.0034,0.0102,0.0095,0.0143,0.0128,0.0137,0.0199,0.0093,0.0093,0.0094,0.0094,0.0094,-0.0636,-0.0634,-0.06,-0.0532,-0.0439,-0.0301,-0.0149,-0.0032,0.0079,0.0128,0.0181,0.0182,0.0229,0.0156,0.0157,0.0157,0.0157,0.0158,0.0158,-0.0783,-0.0739,-0.0713,-0.0627,-0.0547,-0.0407,-0.0173,-0.0051,0.0105,0.0171,0.0172,0.0258,0.0163,0.0152,0.0163,0.0162,0.0162,0.0161,0.0161,-0.0936,-0.09,-0.0843,-0.0771,-0.0559,-0.0407,-0.0219,0.0029,0.0155,0.0231,0.0311,0.0218,0.0256,0.0253,0.0247,0.0283,0.0283,0.0283,0.0283,-0.1036,-0.1018,-0.089,-0.074,-0.0565,-0.0379,-0.0171,0.0009,0.0242,0.0331,0.0394,0.0351,0.0343,0.0385,0.038,0.0376,0.0444,0.0444,0.0444,-0.1096,-0.1041,-0.0941,-0.0762,-0.0534,-0.0343,-0.016,-0.0021,0.0266,0.0458,0.0481,0.0474,0.0414,0.0397,0.0463,0.0451,0.0444,0,0]}],[{"header":{"parameterUnit":"m.s-1","parameterCategory":2,"la1":30.2992,"la2":30.254,"lo1":-89.0895,"lo2":-89.0443,"dy":0.0025,"dx":0.0025,"nx":19,"ny":19,"refTime":"2026-05-11T09:00:00:Z","depth":"2","parameterNumber":2,"parameterNumberName":"U-component_of_CURRENTS"},"data":[0,0,0,-0.2633,-0.2634,-0.2639,-0.2639,-0.2644,-0.2644,0,0,0,0,0,0,0,0,0,0,0,-0.2628,-0.2628,-0.2633,-0.2634,-0.2639,-0.2639,-0.2644,-0.2644,0,0,0,0,0,0,0,0,0,0,0,-0.2628,-0.2628,-0.2628,-0.2634,-0.2639,-0.2639,-0.2644,-0.2639,0,0,0,0,0,0,0,0,0,0,-0.2633,-0.2615,-0.2628,-0.2628,-0.2634,-0.2639,-0.2639,-0.2639,-0.2639,-0.2642,0,-0.2644,0,-0.2648,-0.2644,-0.2644,0,0,0,-0.2629,-0.2614,-0.2633,-0.2628,-0.2634,-0.2639,-0.2635,-0.2639,-0.264,-0.2643,-0.2644,-0.2644,-0.2648,-0.2644,-0.2644,-0.2716,-0.2716,0,0,-0.2628,-0.2612,-0.2633,-0.2634,-0.2637,-0.2635,-0.2636,-0.2639,-0.263,-0.2644,-0.2645,-0.2648,-0.2644,-0.2645,-0.2715,-0.2716,0,0,0,-0.2631,-0.2611,-0.263,-0.2633,-0.2637,-0.2635,-0.2636,-0.2629,-0.2641,-0.2645,-0.2648,-0.2645,-0.2645,-0.2714,-0.2715,-0.273,0,0,0,-0.2631,-0.2614,-0.263,-0.2617,-0.2637,-0.263,-0.2626,-0.264,-0.2641,-0.2648,-0.2645,-0.2645,-0.2713,-0.2715,-0.2728,-0.2679,0,0,0,-0.2628,-0.2613,-0.2618,-0.2617,-0.2624,-0.263,-0.264,-0.264,-0.2643,-0.2644,-0.2645,-0.2713,-0.2715,-0.2726,-0.2678,-0.2519,0,0,0,-0.2604,-0.264,-0.2617,-0.2672,-0.2624,-0.2697,-0.264,-0.2674,-0.2683,-0.2645,-0.2714,-0.2715,-0.2725,-0.2677,-0.2521,-0.2208,-0.2173,0,0,-0.2649,-0.2644,-0.2688,-0.267,-0.2756,-0.2695,-0.2746,-0.272,-0.2707,-0.2709,-0.2711,-0.2729,-0.2678,-0.252,-0.2306,-0.2266,0,0,0,-0.2705,-0.2727,-0.2756,-0.2792,-0.2827,-0.2802,-0.2789,-0.2758,-0.2745,-0.2719,-0.2759,-0.2725,-0.2624,-0.2443,-0.2413,-0.2723,-0.2723,-0.2723,-0.2723,-0.2615,-0.271,-0.2779,-0.2871,-0.29,-0.288,-0.2842,-0.2794,-0.2806,-0.28,-0.2763,-0.2684,-0.25,-0.2471,-0.2821,-0.2821,-0.2821,-0.2821,-0.2821,-0.2644,-0.2656,-0.2778,-0.2893,-0.2895,-0.2916,-0.2864,-0.2835,-0.2727,-0.279,-0.2691,-0.2501,-0.2438,-0.2823,-0.2822,-0.2822,-0.2822,-0.2822,-0.2822,-0.2487,-0.2524,-0.2654,-0.2799,-0.2826,-0.286,-0.2696,-0.2702,-0.2699,-0.2638,-0.2333,-0.2329,-0.2585,-0.2565,-0.2564,-0.2563,-0.2562,-0.2562,-0.2561,-0.2251,-0.2405,-0.2457,-0.2659,-0.2644,-0.2619,-0.255,-0.2428,-0.2281,-0.2268,-0.2265,-0.2593,-0.2602,-0.2568,-0.2548,-0.255,-0.2552,-0.2553,-0.2554,-0.204,-0.2113,-0.219,-0.2209,-0.2216,-0.2025,-0.2073,-0.1814,-0.1737,-0.1613,-0.201,-0.2028,-0.1947,-0.1969,-0.1919,-0.1731,-0.1731,-0.1731,-0.1731,-0.1798,-0.188,-0.1862,-0.1785,-0.1686,-0.1675,-0.1268,-0.117,-0.1243,-0.1284,-0.1304,-0.1349,-0.139,-0.1283,-0.1321,-0.1261,-0.0901,-0.09,-0.0899,-0.161,-0.1677,-0.1516,-0.1548,-0.1396,-0.1245,-0.0888,-0.0723,-0.0759,-0.0878,-0.1278,-0.1652,-0.1777,-0.1818,-0.1708,-0.1749,-0.1673,0,0]},{"header":{"parameterUnit":"m.s-1","parameterCategory":2,"la1":30.2992,"la2":30.254,"lo1":-89.0895,"lo2":-89.0443,"dy":0.0025,"dx":0.0025,"nx":19,"ny":19,"refTime":"2026-05-11T09:00:00:Z","depth":"2","parameterNumber":3,"parameterNumberName":"V-component_of_CURRENTS"},"data":[0,0,0,-0.0096,-0.0094,0.0008,0.0009,0.0146,0.0147,0,0,0,0,0,0,0,0,0,0,0,-0.0136,-0.0136,-0.0096,-0.0094,0.0008,0.0009,0.0146,0.0147,0,0,0,0,0,0,0,0,0,0,0,-0.0136,-0.0136,-0.0136,-0.0093,0.0008,0.0009,0.0145,0.007,0,0,0,0,0,0,0,0,0,0,-0.0028,-0.007,-0.0136,-0.0136,-0.0093,0.0008,0.0009,0.0067,0.0075,0.0097,0,0.0099,0,0.0122,0.0155,0.0155,0,0,0,-0.0079,-0.0077,-0.0053,-0.0136,-0.0092,0.0008,-0.0033,0.0072,0.0081,0.0107,0.0101,0.0107,0.0125,0.0156,0.0156,0.0246,0.0246,0,0,-0.0084,-0.0108,-0.006,-0.0048,-0.0082,-0.0037,-0.003,0.0077,0.0082,0.0102,0.011,0.0127,0.0156,0.0157,0.0246,0.0246,0,0,0,-0.0111,-0.0112,-0.0091,-0.0054,-0.0038,-0.0034,-0.0027,0.0078,0.0083,0.0112,0.0129,0.0157,0.0159,0.0246,0.0246,0.0193,0,0,0,-0.0113,-0.0128,-0.0094,-0.0105,-0.0041,0.0021,-0.0029,0.0076,0.0089,0.0128,0.0157,0.016,0.0246,0.0246,0.0194,0.0208,0,0,0,-0.0138,-0.013,-0.0125,-0.0107,-0.0069,0.002,0.0032,0.0079,0.0098,0.0155,0.016,0.0246,0.0246,0.0195,0.0209,0.0291,0,0,0,-0.0155,-0.0171,-0.0126,-0.0131,-0.0071,-0.003,0.0032,0.0078,0.012,0.0158,0.0246,0.0246,0.0196,0.021,0.029,0.0174,0.0169,0,0,-0.019,-0.0176,-0.0179,-0.0136,-0.0129,-0.0042,-0.0004,0.0079,0.0135,0.0213,0.0216,0.0194,0.0209,0.0291,0.0188,0.0182,0,0,0,-0.0199,-0.0212,-0.02,-0.0179,-0.0125,-0.0057,0.0022,0.0078,0.016,0.016,0.0214,0.0227,0.0279,0.0207,0.0203,0.0247,0.0247,0.0247,0.0247,-0.0297,-0.026,-0.0266,-0.0219,-0.0175,-0.0063,0.001,0.0105,0.0135,0.0168,0.0196,0.0242,0.0161,0.0157,0.0192,0.0192,0.0192,0.0191,0.0191,-0.0389,-0.0406,-0.0321,-0.032,-0.0217,-0.0164,0.0006,0.0061,0.0196,0.0187,0.024,0.0169,0.015,0.0188,0.0188,0.0189,0.0189,0.0189,0.019,-0.0502,-0.0499,-0.048,-0.0429,-0.0337,-0.0201,-0.0066,0.0062,0.0172,0.0222,0.021,0.0209,0.0252,0.0256,0.0257,0.0257,0.0258,0.0258,0.0258,-0.0636,-0.0609,-0.0596,-0.0526,-0.0445,-0.0315,-0.0089,0.0004,0.0127,0.0187,0.0186,0.0267,0.0265,0.0259,0.0264,0.0263,0.0262,0.0262,0.0261,-0.077,-0.0758,-0.072,-0.0656,-0.0465,-0.036,-0.0192,-0.0042,0.0083,0.0114,0.019,0.0189,0.0222,0.0223,0.0219,0.0214,0.0214,0.0214,0.0214,-0.0855,-0.0852,-0.076,-0.063,-0.0494,-0.0349,-0.0255,-0.0137,0.0011,0.0077,0.0084,-0.0008,-0.0004,0.0014,0.002,0.0011,-0.0048,-0.0048,-0.0048,-0.0906,-0.087,-0.0785,-0.0647,-0.0469,-0.0363,-0.0279,-0.0133,-0.0019,-0.0054,0.0087,0.0187,0.0063,0.0065,0.0103,0.0109,0.0098,0,0]}],[{"header":{"parameterUnit":"m.s-1","parameterCategory":2,"la1":30.2992,"la2":30.254,"lo1":-89.0895,"lo2":-89.0443,"dy":0.0025,"dx":0.0025,"nx":19,"ny":19,"refTime":"2026-05-11T09:00:00:Z","depth":"4","parameterNumber":2,"parameterNumberName":"U-component_of_CURRENTS"},"data":[0,0,0,-0.0504,-0.0507,-0.0812,-0.0814,-0.1182,-0.1184,0,0,0,0,0,0,0,0,0,0,0,-0.0447,-0.0448,-0.0504,-0.0508,-0.0811,-0.0814,-0.1181,-0.1184,0,0,0,0,0,0,0,0,0,0,0,-0.0447,-0.0448,-0.0449,-0.0508,-0.0811,-0.0815,-0.1181,-0.0982,0,0,0,0,0,0,0,0,0,0,-0.0699,-0.0634,-0.0448,-0.0449,-0.0509,-0.081,-0.0815,-0.0973,-0.0994,-0.1005,0,-0.1023,0,-0.1042,-0.1198,-0.1199,0,0,0,-0.0612,-0.0617,-0.0648,-0.0449,-0.051,-0.0809,-0.0704,-0.0986,-0.1009,-0.1031,-0.1028,-0.1041,-0.1048,-0.12,-0.1201,-0.1582,-0.1585,0,0,-0.0595,-0.0564,-0.0631,-0.0661,-0.0549,-0.0693,-0.0712,-0.1001,-0.1036,-0.1029,-0.1049,-0.1054,-0.1201,-0.1203,-0.158,-0.1583,0,0,0,-0.0476,-0.0552,-0.0581,-0.0647,-0.0665,-0.0699,-0.0721,-0.1027,-0.1021,-0.1052,-0.1059,-0.1202,-0.1205,-0.1577,-0.1581,-0.1639,0,0,0,-0.0471,-0.0474,-0.0572,-0.0567,-0.0658,-0.0852,-0.074,-0.1004,-0.1035,-0.1057,-0.1202,-0.1207,-0.1574,-0.1579,-0.1631,-0.1489,0,0,0,-0.044,-0.0472,-0.0483,-0.0562,-0.0636,-0.0848,-0.0868,-0.1014,-0.1032,-0.1199,-0.1208,-0.1572,-0.1578,-0.1624,-0.1484,-0.1387,0,0,0,-0.0434,-0.0442,-0.0484,-0.0549,-0.0631,-0.0758,-0.0867,-0.1048,-0.1194,-0.1204,-0.1575,-0.1581,-0.1622,-0.1481,-0.1387,-0.103,0,0,0,-0.0427,-0.0442,-0.0488,-0.0529,-0.0554,-0.0726,-0.089,-0.114,-0.13,-0.1488,-0.1499,-0.1633,-0.1484,-0.1387,-0.1397,0,0,0,0,-0.0478,-0.05,-0.0508,-0.0578,-0.0655,-0.0778,-0.1028,-0.1176,-0.1538,-0.139,-0.1742,-0.1644,-0.158,-0.1382,-0.161,-0.161,-0.1609,-0.1608,-0.1608,-0.0594,-0.0599,-0.0601,-0.0617,-0.0672,-0.0896,-0.1065,-0.1354,-0.1526,-0.1758,-0.178,-0.1844,-0.1661,-0.1968,-0.1969,-0.1969,-0.197,-0.197,-0.197,-0.0643,-0.0628,-0.0634,-0.0615,-0.0692,-0.0862,-0.1155,-0.1396,-0.1706,-0.189,-0.1832,-0.1571,-0.1979,-0.1977,-0.1976,-0.1975,-0.1974,-0.1973,-0.1973,-0.0755,-0.0665,-0.0722,-0.0663,-0.0713,-0.0852,-0.0947,-0.1353,-0.1656,-0.174,-0.1519,-0.1804,-0.1685,-0.1784,-0.1783,-0.1782,-0.1781,-0.1781,-0.178,-0.0769,-0.0751,-0.0694,-0.0642,-0.0608,-0.0669,-0.0912,-0.0969,-0.1292,-0.1422,-0.1749,-0.1775,-0.1782,-0.1674,-0.1766,-0.1769,-0.1771,-0.1772,-0.1773,-0.0687,-0.0733,-0.0606,-0.0563,-0.0438,-0.0462,-0.0594,-0.0622,-0.0657,-0.0685,-0.1223,-0.1254,-0.1128,-0.1147,-0.101,-0.0908,-0.0904,-0.0899,0,-0.064,-0.0641,-0.0472,-0.036,-0.025,-0.0322,-0.0198,-0.022,-0.0519,-0.0642,-0.0725,-0.1343,-0.1364,-0.1232,-0.1241,-0.1085,0,0,0,-0.0536,-0.0493,-0.037,-0.0292,-0.0174,-0.0159,-0.0184,-0.0193,-0.055,-0.0272,-0.0785,-0.0815,-0.1039,-0.1725,-0.16,-0.1608,-0.1422,0,0]},{"header":{"parameterUnit":"m.s-1","parameterCategory":2,"la1":30.2992,"la2":30.254,"lo1":-89.0895,"lo2":-89.0443,"dy":0.0025,"dx":0.0025,"nx":19,"ny":19,"refTime":"2026-05-11T09:00:00:Z","depth":"4","parameterNumber":3,"parameterNumberName":"V-component_of_CURRENTS"},"data":[0,0,0,-0.0459,-0.0462,-0.0652,-0.0653,-0.079,-0.079,0,0,0,0,0,0,0,0,0,0,0,-0.0395,-0.0395,-0.0459,-0.0463,-0.0652,-0.0653,-0.079,-0.079,0,0,0,0,0,0,0,0,0,0,0,-0.0394,-0.0395,-0.0396,-0.0463,-0.0651,-0.0653,-0.079,-0.0679,0,0,0,0,0,0,0,0,0,0,-0.0511,-0.0472,-0.0395,-0.0396,-0.0464,-0.0651,-0.0653,-0.0675,-0.0686,-0.0666,0,-0.0686,0,-0.0727,-0.0795,-0.0795,0,0,0,-0.0487,-0.0464,-0.0494,-0.0396,-0.0466,-0.0651,-0.0573,-0.0682,-0.0694,-0.068,-0.0688,-0.0694,-0.073,-0.0795,-0.0796,-0.0878,-0.0878,0,0,-0.0477,-0.0452,-0.0486,-0.0501,-0.05,-0.0567,-0.0579,-0.0691,-0.0705,-0.0689,-0.0698,-0.0732,-0.0796,-0.0796,-0.0877,-0.0878,0,0,0,-0.043,-0.0444,-0.0476,-0.0494,-0.053,-0.0572,-0.0586,-0.0702,-0.0706,-0.07,-0.0734,-0.0796,-0.0797,-0.0877,-0.0877,-0.0924,0,0,0,-0.0425,-0.0415,-0.047,-0.0461,-0.0528,-0.0636,-0.0594,-0.0699,-0.0713,-0.0733,-0.0796,-0.0798,-0.0876,-0.0877,-0.0922,-0.1004,0,0,0,-0.0389,-0.0412,-0.0425,-0.0458,-0.0527,-0.0635,-0.065,-0.0704,-0.0731,-0.0795,-0.0798,-0.0876,-0.0877,-0.092,-0.0999,-0.0915,0,0,0,-0.0369,-0.0414,-0.0424,-0.0504,-0.0525,-0.0664,-0.065,-0.0752,-0.0811,-0.0797,-0.0876,-0.0877,-0.0919,-0.0996,-0.0914,-0.0737,0,0,0,-0.0417,-0.042,-0.0472,-0.0485,-0.0613,-0.0641,-0.0797,-0.0849,-0.0813,-0.0835,-0.0839,-0.0922,-0.0999,-0.0915,-0.0794,0,0,0,0,-0.0483,-0.0521,-0.0559,-0.0644,-0.0722,-0.0842,-0.0909,-0.09,-0.0916,-0.0847,-0.0928,-0.0977,-0.092,-0.0814,-0.0882,-0.0882,-0.0882,-0.0882,-0.0881,-0.0477,-0.056,-0.0664,-0.0789,-0.0863,-0.0985,-0.1048,-0.1048,-0.0996,-0.099,-0.1016,-0.1001,-0.0893,-0.0984,-0.0984,-0.0984,-0.0984,-0.0985,-0.0985,-0.0541,-0.0624,-0.0724,-0.0855,-0.0976,-0.1104,-0.1182,-0.1169,-0.1138,-0.1101,-0.1038,-0.0878,-0.0989,-0.0989,-0.0988,-0.0987,-0.0987,-0.0987,-0.0986,-0.0532,-0.0598,-0.0681,-0.0844,-0.1,-0.1147,-0.1163,-0.1239,-0.1191,-0.1171,-0.0921,-0.1018,-0.1006,-0.1055,-0.1055,-0.1055,-0.1055,-0.1055,-0.1055,-0.0485,-0.0583,-0.0663,-0.0833,-0.0908,-0.1022,-0.1151,-0.1105,-0.1099,-0.1,-0.1138,-0.1024,-0.1022,-0.1009,-0.1055,-0.1055,-0.1055,-0.1055,-0.1055,-0.0536,-0.0526,-0.0621,-0.0681,-0.0806,-0.0865,-0.0952,-0.0908,-0.0805,-0.073,-0.0863,-0.0872,-0.0827,-0.083,-0.0808,-0.0797,-0.0794,-0.0792,0,-0.0518,-0.054,-0.0595,-0.0622,-0.064,-0.0762,-0.0597,-0.0588,-0.0672,-0.0705,-0.0786,-0.0943,-0.0947,-0.0902,-0.09,-0.0877,0,0,0,-0.0537,-0.0545,-0.0563,-0.0596,-0.0602,-0.0566,-0.0577,-0.0564,-0.0675,-0.0549,-0.0738,-0.0753,-0.0804,-0.1055,-0.1009,-0.1006,-0.0983,0,0]}]]